Showing default

HULIANWANG DIGUI-35, 64956

Orbit data source: Space-Track

HULIANWANG DIGUI-35, 64956 is a payload satellite owned by Zhongguo Xingwang (CN) in LEO that was launched on Sun, 27 Jul 2025 UTC via a CHANG ZHENG 6A launch vehicle from the Taiyaun Space Center, China (TSC). Payload-class satellites include a variety of spacecraft equipped with specific instruments for various scientific and technological missions. These include communications satellites like Starlink; space stations such as the ISS; scientific satellites like the Hubble; Earth observation satellites from companies like Planet Labs, Umbra, and HawkEye 360; GPS; miniature CubeSats for education and research; and military/defense satellites.

Loading next visibility...
Identifier
64956, 2025-159A
Orbit
LEO
Country
Flag of CNCN / PRC
Related business
Manufacturer
CAST
Mission
Operational Civil Communications
Bus & Motor
GUOWANG C, Unknown motor
Mass
~800 kg wet, ~800 kg dry
Launch date (UTC)
2025-07-27 (4 months ago)
Launch vehicle
CHANG ZHENG 6A
Launch site
Taiyaun Space Center, China (TSC)
Object type
Payload
Rocket body
Debris
Shape & HBR
Box + 2 Pan, 2.7 m
Radar Cross Section
5.935 m², Large (>1 m²)

Expand to show TLE details & history
Last TLE update: 10 hours ago

TLE from 10 hours ago
0 HULIANWANG DIGUI-35
1 64956U 25159A   25342.57179212  .00000080  00000-0  15239-3 0  9993
2 64956  86.4963 346.8176 0001949 100.3910 259.7443 13.24409148 17895
Epoch: 2025-12-08T13:43Z
TLE epoch observation values (Epoch: 2025-12-08T13:43:22.839Z)
Latitude
-0.00008°
Longitude
63.40353°
Altitude
1,171.082 km
Speed
7.268 km/s
True Right ascension
23h 07m 16s
True Declination
0° 00' 00"
Sunlit
Object was in daylight at epoch
Visualization orbit readout
Latitude
Unknown
Longitude
Unknown
Altitude
Unknown
Speed
Unknown
Apparent Right ascension
Unknown
Apparent Declination
Unknown
Sunlit
N/A
Visualization observer readout
Local Sidereal Time
21:55:57
Azimuth
Unknown
Elevation
Unknown
Doppler factor
Unknown
Orbital elements
Apogee altitude
1,166.516 km
Perigee altitude
1,163.575 km
Semi-major axis
7,543.182 km
Eccentricity
0.00019
Inclination
86.4963°
RAAN
346.8176°
Arg. of periapsis
100.391°
True anomaly
259.72232°
Mean anomaly
259.7443°
Eccentric anomaly
259.73331°
Mean motion
3.31292 °/min
Orbital period
108.67 mins
BSTAR
0.00015239
Loading maneuver chart data...
Computing Atmospheric mass density...
Loading historical data...
Loading historical data...
Loading historical data...
Loading historical data...
Loading historical data...
Loading historical data...
Loading historical data...

Documentation

Showing up to 5 results
|